Flag for Venezuela Weather past 2 weeks in Valencia, Venezuela

Now
75 °F

Passing clouds.


Feels Like: 74 °F
Forecast: 68 / 89 °F
Wind: 1 mph from West

Location: Valencia Airport

Current Time: Aug 3, 2015 at 1:06:43 AM

Latest Report: Aug 2, 2015 at 11:30 PM


Visibility: N/A

Pressure: 29.98 "Hg

Humidity: 94%

Dew point: 73 °F

Location of ValenciaLocation

Historic Weather in Valencia — Graph

°F

Valencia temperature yesterday

Maximum temperature yesterday: 86 °F (at 11:30 AM)
Minimum temperature yesterday: 72 °F (at 6:30 AM)
Average temperature yesterday: 80 °F

Past Weeks' High & Low Weather Summary

 TemperatureHumidityPressure
High95 °F (Jul 29, 1:30 PM)100% (Jul 31, 9:30 PM)30.12 "Hg (Jul 31, 9:30 PM)
Low72 °F (Jul 31, 8:30 PM)41% (Jul 29, 1:30 PM)29.83 "Hg (Jul 27, 5:30 PM)
Average83 °F72%29.98 "Hg
* Reported Jul 19 7:30 AM — Aug 2 11:30 PM, Valencia, Weather by CustomWeather, © 2015

Note: Actual official high and low records may vary slightly from our data, if they occured in-between our weather recording intervals... More about our weather records

Advertising

Valencia weather history for previous 24 hours

 ConditionsComfort  
Time TempWeatherWind HumidityBarometerVisibility
11:30 PM
Sun, Aug 2
75 °FPassing clouds.1 mph94%29.98 "HgN/A
10:30 PM77 °FPassing clouds.1 mph89%29.95 "HgN/A
9:30 PM79 °FPassing clouds.2 mph79%29.95 "HgN/A
8:30 PM79 °FPassing clouds.3 mph84%29.92 "HgN/A
7:30 PM77 °FPassing clouds.2 mph89%29.89 "HgN/A
6:30 PM79 °FPassing clouds.5 mph79%29.89 "HgN/A
5:30 PM84 °FPartly sunny.7 mph66%29.86 "HgN/A
4:30 PM86 °FPartly sunny.8 mph62%29.86 "HgN/A
3:30 PM82 °FPartly sunny.9 mph70%29.89 "HgN/A
2:30 PM81 °FPassing clouds.10 mph79%29.89 "HgN/A
1:30 PM86 °FPassing clouds.7 mph62%29.92 "HgN/A
12:30 PM84 °FPartly sunny.8 mph62%29.98 "HgN/A
11:30 AM86 °FScattered clouds.2 mph55%29.98 "HgN/A
10:30 AM84 °FScattered clouds.3 mph62%29.98 "HgN/A
9:30 AM81 °FScattered clouds.2 mph74%29.98 "HgN/A
8:30 AM79 °FScattered clouds.3 mph74%29.98 "HgN/A
7:30 AM73 °FPartly sunny.1 mph94%29.98 "HgN/A
6:30 AM72 °FPartly sunny.No wind94%29.95 "HgN/A
4:30 AM73 °FPassing clouds.3 mph94%29.95 "HgN/A
1:30 AM75 °FPassing clouds.3 mph89%29.98 "HgN/A
Weather by CustomWeather, © 2015

See weather overviewHow to use our weather pages